Weather History for Wautoma, WI

Change the Weather History Date:

Saturday, February 2, 2013

  Actual Average (KPCZ) Record (KPCZ)
Temperature  
Mean Temperature 2 °F -  
Max Temperature 9 °F 26 °F 44 °F (1987)
Min Temperature -6 °F 6 °F -27 °F (1951)
Degree Days  
Heating Degree Days 64    
Moisture  
Dew Point -5 °F    
Average Humidity 73    
Maximum Humidity 87    
Minimum Humidity 51    
Precipitation  
Precipitation 0.00 in - - ()
Sea Level Pressure  
Sea Level Pressure 30.11 in    
Wind  
Wind Speed 1 mph (NNW)    
Max Wind Speed 7 mph    
Max Gust Speed -    
Visibility 8 miles    
Events Snow    
Averages and records for this station are not official NWS values.
T = Trace of Precipitation, MM = Missing Value Source: NWS Daily Summary

Daily Weather History Graph

Daily Weather History Graph

Search for Another Location

Airport:

Trip Planner

Search our weather history database for the weather conditions in past years. The results will help you decide how hot, cold, wet, or windy it might be!

Date:

Astronomy

Feb. 02, 2013 Rise Set
Actual Time 7:13 AM CST 5:09 PM CST
Civil Twilight 6:42 AM CST 5:39 PM CST
Nautical Twilight 6:08 AM CST 6:14 PM CST
Astronomical Twilight 5:34 AM CST 6:48 PM CST
Moon No Moon Rise 10:07 AM CST (2/2)
Length of Visible Light 10h 57m
Length of Day
9h 56m
Waning Gibbous, 59% of the Moon is Illuminated
Feb 2
Waning Gibbous
Feb 3
Last Quarter
Feb 10
New
Feb 17
First Quarter
Feb 25
Full

Hourly Weather History & Observations

Time (CST) Temp. Windchill Dew Point Humidity Pressure Visibility Wind Dir Wind Speed Gust Speed Precip Events Conditions
12:25 AM 1.4 °F - -4.0 °F 78% 30.09 in 6.0 mi Calm Calm - 0.00 in Snow Light Snow
12:28 AM 1.4 °F - -4.0 °F 78% 30.09 in 6.0 mi Calm Calm - 0.00 in Snow Light Snow
12:56 AM 1.0 °F - -4.0 °F 79% 30.14 in 2.5 mi Calm Calm - 0.00 in Snow Light Snow
1:07 AM 1.4 °F - -4.0 °F 78% 30.08 in 6.0 mi Calm Calm - 0.00 in Snow Light Snow
1:56 AM 1.0 °F - -4.0 °F 79% 30.14 in 10.0 mi Calm Calm - 0.00 in   Overcast
2:39 AM 1.4 °F - -4.0 °F 78% 30.07 in 5.0 mi Calm Calm - 0.00 in Snow Light Snow
2:47 AM 1.4 °F - -4.0 °F 78% 30.07 in 3.0 mi Calm Calm - 0.00 in Snow Light Snow
2:56 AM 1.4 °F - -4.0 °F 78% 30.07 in 1.8 mi Calm Calm - N/A Snow Light Snow
3:02 AM 1.4 °F - -4.0 °F 78% 30.06 in 3.0 mi Calm Calm - 0.00 in Snow Light Snow
3:14 AM 1.4 °F - -2.2 °F 85% 30.06 in 5.0 mi Calm Calm - 0.00 in Snow Light Snow
3:56 AM 1.0 °F - -2.9 °F 83% 30.11 in 9.0 mi Calm Calm - 0.00 in Snow Light Snow
4:11 AM 1.4 °F - -2.2 °F 85% 30.05 in 7.0 mi Calm Calm - 0.00 in Snow Light Snow
4:56 AM 2.1 °F - -2.9 °F 79% 30.12 in 10.0 mi Calm Calm - 0.00 in   Overcast
5:56 AM 2.1 °F - -4.0 °F 76% 30.12 in 10.0 mi Calm Calm - 0.00 in   Overcast
6:56 AM 2.1 °F -5.4 °F -4.0 °F 76% 30.14 in 10.0 mi North 3.5 mph - N/A   Overcast
7:56 AM 2.1 °F -9.0 °F -4.9 °F 72% 30.16 in 10.0 mi North 5.8 mph - N/A   Overcast
8:56 AM 1.4 °F -11.3 °F -5.8 °F 72% 30.10 in 10.0 mi North 6.9 mph - N/A   Overcast
9:56 AM 3.0 °F -9.3 °F -6.0 °F 66% 30.17 in 10.0 mi North 6.9 mph - N/A   Mostly Cloudy
10:56 AM 5.0 °F - -6.0 °F 61% 30.17 in 10.0 mi Calm Calm - N/A   Clear
11:56 AM 6.1 °F -2.8 °F -6.0 °F 58% 30.15 in 10.0 mi North 4.6 mph - N/A   Clear
12:56 PM 8.1 °F - -6.9 °F 51% 30.14 in 10.0 mi Calm Calm - N/A   Clear
1:56 PM 9.1 °F -0.7 °F -4.9 °F 53% 30.13 in 10.0 mi WNW 5.8 mph - N/A   Clear
2:56 PM 8.1 °F -0.5 °F -4.9 °F 56% 30.13 in 10.0 mi West 4.6 mph - N/A   Clear
3:56 PM 8.1 °F -2.0 °F -4.9 °F 56% 30.12 in 10.0 mi WNW 5.8 mph - N/A   Clear
4:56 PM 7.2 °F - -6.0 °F 55% 30.13 in 10.0 mi Calm Calm - N/A   Clear
6:56 PM 2.1 °F - -4.0 °F 76% 30.12 in 10.0 mi Calm Calm - N/A   Partly Cloudy
7:56 PM -4.0 °F - -6.9 °F 87% 30.12 in 10.0 mi Calm Calm - N/A   Clear
8:56 PM -6.0 °F - -9.9 °F 83% 30.09 in 10.0 mi Calm Calm - N/A   Clear
9:56 PM -4.9 °F - -8.9 °F 83% 30.09 in 10.0 mi Calm Calm - N/A   Mostly Cloudy
10:56 PM -2.9 °F - -6.9 °F 83% 30.06 in 10.0 mi Calm Calm - N/A   Overcast
11:56 PM -2.2 °F - -7.6 °F 78% 29.98 in 5.0 mi Calm Calm - N/A Snow Light Snow